{"data":{"norad_id":58877,"epoch":"2026-09-20T07:09:36.170784Z","epoch_age_seconds":169908,"freshness":"FRESH","line1":"1 58877U 24020B   26263.29833531 -.00001196  00000+0 -26787-4 0  9998","line2":"2 58877  53.1613 137.2695 0001449  75.7560 284.3602 15.31704352147881","mean_motion":15.31704352,"eccentricity":0.0001449,"inclination_deg":53.1613,"raan_deg":137.2695,"arg_perigee_deg":75.756,"mean_anomaly_deg":284.3602,"bstar":-2.6787e-5,"rev_number":14788,"period_min":94.012920843356,"perigee_km":469.73462177401,"apogee_km":471.71942256764,"semimajor_km":6848.8640221708,"source":"CELESTRAK","updated_at":"2026-09-21T09:00:33.991965Z"}}